QPF
0.00 0.00 0.00 0.00 0.00 0.00 0.00 0.00 0.00 0.00 0.00 0.00 0.00 0.00 0.00 0.00 0.00 0.00 0.00 0.00 0.00 0.00 0.00 0.00 0.00 0.00 0.00 0.00 0.00 0.00 0.00 0.00 0.00 0.00 0.00 0.00 0.00 0.00 0.00 0.00 0.00 0.00 0.00 0.00
0.00 0.00 0.00 0.00 0.00 0.00 0.00 0.00 0.00 0.00 0.00 0.00 0.00 0.00 0.00 0.00 0.00 0.00 0.00 0.00 0.00 0.00 0.00 0.00 0.00 0.00 0.00 0.00 0.00 0.00 0.00 0.00 0.00 0.00 0.00 0.00 0.00 0.00 0.00 0.00 0.00 0.00 0.00 0.00
0.00 0.00 0.00 0.00 0.00 0.00 0.00 0.00 0.00 0.00 0.00 0.00 0.00 0.00 0.00 0.00 0.00 0.00 0.00 0.00 0.00 0.00 0.00 0.00 0.00 0.00 0.00 0.00 0.00 0.00 0.00 0.00 0.00 0.00 0.00 0.00 0.00 0.00 0.00 0.00 0.00 0.00 0.00 0.00
0.00 0.00 0.00 0.00 0.00 0.00 0.00 0.00 0.00 0.00 0.00 0.00 0.00 0.00 0.00 0.00 0.00 0.00 0.00 0.00 0.00 0.00 0.00 0.00 0.00 0.00 0.00 0.00 0.00 0.00 0.00 0.00 0.00 0.00 0.00 0.00 0.00 0.00 0.00 0.00 0.00 0.00 0.00 0.00
0.00 0.00 0.00 0.00 0.00 0.00 0.00 0.00 0.00 0.00 0.00 0.00 0.00 0.00 0.00 0.00 0.00 0.00 0.00 0.00 0.00 0.00 0.00 0.00 0.00 0.00 0.00 0.00 0.00 0.00 0.00 0.00 0.00 0.00 0.00 0.00 0.00 0.00 0.00 0.00 0.00 0.00 0.00 0.00
0.00 0.00 0.00 0.00 0.00 0.00 0.00 0.00 0.00 0.00 0.00 0.00 0.00 0.00 0.00 0.00 0.00 0.00 0.00 0.00 0.00 0.00 0.00 0.00 0.00 0.00 0.00 0.00 0.00 0.00 0.00 0.00 0.00 0.00 0.00 0.00 0.00 0.00 0.00 0.00 0.00 0.00 0.00 0.00
0.00 0.00 0.00 0.00 0.00 0.00 0.00 0.00 0.00 0.00 0.00 0.00 0.00 0.00 0.00 0.00 0.00 0.00 0.00 0.00 0.00 0.00 0.00 0.00 0.00 0.00 0.00 0.00 0.00 0.00 0.00 0.00 0.00 0.00 0.00 0.00 0.00 0.00 0.00 0.00 0.00 0.00 0.00 0.00
0.00 0.00 0.00 0.00 0.00 0.00 0.00 0.00 0.00 0.00 0.00 0.00 0.00 0.00 0.00 0.00 0.00 0.00 0.00 0.00 0.00 0.00 0.00 0.00 0.00 0.00 0.00 0.00 0.00 0.00 0.00 0.00 0.00 0.00 0.00 0.00 0.00 0.00 0.00 0.00 0.00 0.00 0.00 0.00
0.00 0.00 0.00 0.00 0.00 0.00 0.00 0.00 0.00 0.00 0.00 0.00 0.00 0.00 0.00 0.00 0.00 0.00 0.00 0.00 0.00 0.00 0.00 0.00 0.00 0.00 0.00 0.00 0.00 0.00 0.00 0.00 0.00 0.00 0.00 0.00 0.00 0.00 0.00 0.00 0.00 0.00 0.00 0.00
0.00 0.00 0.00 0.00 0.00 0.00 0.00 0.00 0.00 0.00 0.00 0.00 0.00 0.00 0.00 0.00 0.00 0.00 0.00 0.00 0.00 0.00 0.00 0.00 0.00 0.00 0.00 0.00 0.00 0.00 0.00 0.00 0.00 0.00 0.00 0.00 0.00 0.00 0.00 0.00 0.00 0.00 0.01 0.01
0.00 0.00 0.00 0.00 0.00 0.00 0.00 0.00 0.00 0.00 0.00 0.00 0.00 0.00 0.00 0.00 0.00 0.00 0.00 0.00 0.00 0.00 0.00 0.00 0.00 0.00 0.00 0.00 0.00 0.00 0.00 0.00 0.00 0.00 0.00 0.00 0.00 0.00 0.00 0.00 0.00 0.01 0.01 0.01
0.00 0.00 0.00 0.00 0.00 0.00 0.00 0.00 0.00 0.00 0.00 0.00 0.00 0.00 0.00 0.00 0.00 0.00 0.00 0.00 0.00 0.00 0.00 0.00 0.00 0.00 0.00 0.00 0.00 0.00 0.00 0.00 0.00 0.00 0.00 0.00 0.00 0.00 0.00 0.00 0.01 0.01 0.01 0.02
0.00 0.00 0.00 0.00 0.00 0.00 0.00 0.00 0.00 0.00 0.00 0.00 0.00 0.00 0.00 0.00 0.00 0.00 0.00 0.00 0.00 0.00 0.00 0.00 0.00 0.00 0.00 0.00 0.00 0.00 0.00 0.00 0.00 0.00 0.00 0.00 0.00 0.01 0.01 0.01 0.00 0.01 0.01 0.01
0.00 0.00 0.00 0.00 0.00 0.00 0.00 0.00 0.00 0.00 0.00 0.00 0.00 0.00 0.00 0.00 0.00 0.00 0.00 0.00 0.00 0.00 0.00 0.00 0.00 0.00 0.00 0.00 0.00 0.00 0.00 0.00 0.00 0.00 0.00 0.00 0.01 0.01 0.01 0.02 0.02 0.01 0.00 0.01
0.00 0.00 0.00 0.00 0.00 0.00 0.00 0.00 0.00 0.00 0.00 0.00 0.00 0.00 0.00 0.00 0.00 0.00 0.00 0.00 0.00 0.00 0.00 0.00 0.00 0.00 0.00 0.00 0.00 0.00 0.00 0.00 0.00 0.00 0.00 0.00 0.01 0.01 0.02 0.02 0.02 0.02 0.01 0.01
0.00 0.00 0.00 0.00 0.00 0.00 0.00 0.00 0.00 0.00 0.00 0.00 0.00 0.00 0.00 0.00 0.00 0.00 0.00 0.00 0.00 0.00 0.00 0.00 0.00 0.00 0.00 0.00 0.00 0.00 0.00 0.00 0.00 0.00 0.00 0.01 0.01 0.02 0.02 0.03 0.03 0.03 0.03 0.02
0.00 0.00 0.00 0.00 0.00 0.00 0.00 0.00 0.00 0.00 0.00 0.00 0.00 0.00 0.00 0.00 0.00 0.00 0.00 0.00 0.00 0.00 0.00 0.00 0.00 0.00 0.00 0.00 0.00 0.00 0.00 0.00 0.00 0.00 0.01 0.01 0.02 0.03 0.03 0.04 0.04 0.04 0.03 0.03
0.00 0.00 0.00 0.00 0.00 0.00 0.00 0.00 0.00 0.00 0.00 0.00 0.00 0.00 0.00 0.00 0.00 0.00 0.00 0.00 0.00 0.00 0.00 0.00 0.00 0.00 0.00 0.00 0.00 0.00 0.00 0.00 0.00 0.01 0.01 0.02 0.02 0.03 0.03 0.04 0.04 0.04 0.04 0.03
0.00 0.00 0.00 0.00 0.00 0.00 0.00 0.00 0.00 0.00 0.00 0.00 0.00 0.00 0.00 0.00 0.00 0.00 0.00 0.00 0.00 0.00 0.00 0.00 0.00 0.00 0.00 0.00 0.00 0.00 0.00 0.01 0.01 0.02 0.01 0.02 0.02 0.02 0.03 0.04 0.05 0.05 0.04 0.04
0.00 0.00 0.00 0.00 0.00 0.00 0.00 0.00 0.00 0.00 0.00 0.00 0.00 0.00 0.00 0.00 0.00 0.00 0.00 0.00 0.00 0.00 0.00 0.00 0.00 0.00 0.00 0.00 0.00 0.01 0.01 0.02 0.02 0.02 0.02 0.02 0.02 0.03 0.03 0.04 0.05 0.05 0.04 0.04
0.00 0.00 0.00 0.00 0.00 0.00 0.00 0.00 0.00 0.00 0.00 0.00 0.00 0.00 0.00 0.00 0.00 0.00 0.00 0.00 0.00 0.00 0.00 0.00 0.00 0.00 0.00 0.00 0.01 0.01 0.01 0.02 0.02 0.02 0.02 0.03 0.03 0.03 0.04 0.05 0.04 0.04 0.05 0.04
0.00 0.00 0.00 0.00 0.00 0.00 0.00 0.00 0.00 0.00 0.00 0.00 0.00 0.00 0.00 0.00 0.00 0.00 0.00 0.00 0.00 0.00 0.00 0.00 0.00 0.00 0.00 0.01 0.01 0.01 0.01 0.01 0.02 0.02 0.03 0.04 0.05 0.06 0.05 0.04 0.04 0.05 0.04 0.04
0.00 0.00 0.00 0.00 0.00 0.00 0.00 0.00 0.00 0.00 0.00 0.00 0.00 0.00 0.00 0.00 0.00 0.00 0.00 0.00 0.00 0.00 0.00 0.00 0.00 0.00 0.01 0.01 0.01 0.01 0.01 0.02 0.02 0.03 0.03 0.04 0.05 0.06 0.06 0.05 0.05 0.04 0.04 0.04
0.00 0.00 0.00 0.00 0.00 0.00 0.00 0.00 0.00 0.00 0.00 0.00 0.00 0.00 0.00 0.00 0.00 0.00 0.00 0.00 0.00 0.00 0.00 0.00 0.00 0.00 0.01 0.00 0.01 0.01 0.02 0.02 0.03 0.03 0.04 0.05 0.05 0.05 0.05 0.05 0.04 0.04 0.04 0.04
0.00 0.00 0.00 0.00 0.00 0.00 0.00 0.00 0.00 0.00 0.00 0.00 0.00 0.00 0.00 0.00 0.00 0.00 0.00 0.00 0.00 0.00 0.00 0.00 0.00 0.00 0.00 0.00 0.01 0.02 0.02 0.02 0.03 0.05 0.06 0.05 0.05 0.05 0.04 0.04 0.04 0.04 0.04 0.03
0.00 0.00 0.00 0.00 0.00 0.00 0.00 0.00 0.00 0.00 0.00 0.00 0.00 0.00 0.00 0.00 0.00 0.00 0.00 0.00 0.00 0.00 0.00 0.00 0.00 0.00 0.00 0.01 0.01 0.02 0.02 0.03 0.03 0.04 0.05 0.05 0.04 0.04 0.04 0.04 0.03 0.03 0.03 0.03
0.00 0.00 0.00 0.00 0.00 0.00 0.00 0.00 0.00 0.00 0.00 0.00 0.00 0.00 0.00 0.00 0.00 0.00 0.00 0.00 0.00 0.00 0.00 0.00 0.00 0.00 0.01 0.01 0.01 0.02 0.02 0.03 0.04 0.04 0.04 0.04 0.04 0.04 0.04 0.03 0.03 0.03 0.03 0.02
MSLP
1018.61 1018.82 1018.97 1019.08 1019.11 1019.07 1018.94 1018.73 1018.47 1018.16 1017.85 1017.57 1017.35 1017.21 1017.15 1017.17 1017.26 1017.36 1017.46 1017.51 1017.49 1017.39 1017.22 1016.97 1016.69 1016.38 1016.06 1015.76 1015.45 1015.14 1014.83 1014.48 1014.10 1013.69 1013.24 1012.78 1012.32 1011.88 1011.46 1011.06 1010.67 1010.29 1009.89 1009.46
1018.73 1018.80 1018.79 1018.71 1018.57 1018.37 1018.13 1017.86 1017.59 1017.35 1017.14 1017.00 1016.93 1016.95 1017.04 1017.17 1017.33 1017.48 1017.59 1017.64 1017.60 1017.48 1017.28 1017.03 1016.73 1016.42 1016.09 1015.77 1015.43 1015.09 1014.72 1014.32 1013.88 1013.39 1012.88 1012.36 1011.83 1011.32 1010.83 1010.36 1009.92 1009.47 1009.01 1008.52
1018.93 1018.85 1018.68 1018.43 1018.13 1017.80 1017.47 1017.16 1016.90 1016.71 1016.60 1016.59 1016.66 1016.80 1017.00 1017.22 1017.43 1017.61 1017.72 1017.75 1017.68 1017.54 1017.32 1017.05 1016.73 1016.41 1016.06 1015.72 1015.36 1014.97 1014.56 1014.10 1013.61 1013.07 1012.50 1011.91 1011.33 1010.75 1010.20 1009.67 1009.16 1008.65 1008.13 1007.60
1019.13 1018.92 1018.61 1018.23 1017.80 1017.38 1017.00 1016.67 1016.44 1016.31 1016.29 1016.37 1016.54 1016.78 1017.05 1017.32 1017.56 1017.73 1017.83 1017.82 1017.73 1017.55 1017.30 1017.00 1016.67 1016.31 1015.95 1015.57 1015.18 1014.76 1014.30 1013.80 1013.26 1012.68 1012.06 1011.44 1010.81 1010.18 1009.58 1009.00 1008.43 1007.86 1007.29 1006.71
1019.23 1018.92 1018.51 1018.04 1017.55 1017.08 1016.68 1016.38 1016.19 1016.12 1016.18 1016.34 1016.58 1016.88 1017.18 1017.47 1017.69 1017.84 1017.90 1017.85 1017.71 1017.49 1017.21 1016.87 1016.51 1016.12 1015.73 1015.31 1014.88 1014.42 1013.92 1013.39 1012.81 1012.20 1011.56 1010.91 1010.25 1009.60 1008.96 1008.33 1007.72 1007.10 1006.49 1005.88
1019.14 1018.76 1018.30 1017.80 1017.29 1016.84 1016.47 1016.22 1016.10 1016.10 1016.23 1016.45 1016.74 1017.05 1017.36 1017.62 1017.81 1017.92 1017.92 1017.82 1017.63 1017.36 1017.03 1016.65 1016.25 1015.83 1015.39 1014.93 1014.46 1013.95 1013.42 1012.85 1012.26 1011.63 1010.98 1010.31 1009.65 1008.98 1008.32 1007.66 1007.01 1006.36 1005.71 1005.07
1018.80 1018.40 1017.94 1017.45 1016.99 1016.60 1016.31 1016.15 1016.11 1016.19 1016.38 1016.64 1016.95 1017.26 1017.53 1017.75 1017.89 1017.93 1017.86 1017.70 1017.46 1017.14 1016.76 1016.34 1015.90 1015.43 1014.95 1014.45 1013.93 1013.38 1012.82 1012.22 1011.61 1010.97 1010.32 1009.66 1008.98 1008.31 1007.63 1006.96 1006.28 1005.60 1004.93 1004.26
1018.22 1017.83 1017.41 1016.99 1016.62 1016.34 1016.17 1016.11 1016.17 1016.34 1016.58 1016.87 1017.17 1017.45 1017.67 1017.82 1017.89 1017.85 1017.72 1017.50 1017.20 1016.83 1016.42 1015.96 1015.48 1014.97 1014.44 1013.90 1013.33 1012.75 1012.15 1011.53 1010.90 1010.26 1009.61 1008.94 1008.27 1007.59 1006.90 1006.21 1005.50 1004.80 1004.10 1003.42
1017.47 1017.12 1016.77 1016.46 1016.21 1016.07 1016.03 1016.09 1016.26 1016.49 1016.78 1017.07 1017.35 1017.58 1017.74 1017.81 1017.79 1017.68 1017.49 1017.21 1016.86 1016.46 1016.01 1015.53 1015.01 1014.47 1013.91 1013.32 1012.72 1012.10 1011.47 1010.84 1010.19 1009.54 1008.88 1008.21 1007.53 1006.84 1006.14 1005.41 1004.69 1003.96 1003.24 1002.54
1016.66 1016.38 1016.12 1015.93 1015.82 1015.82 1015.92 1016.10 1016.35 1016.65 1016.95 1017.23 1017.47 1017.63 1017.71 1017.71 1017.61 1017.43 1017.17 1016.84 1016.46 1016.04 1015.57 1015.07 1014.54 1013.97 1013.38 1012.77 1012.14 1011.49 1010.83 1010.17 1009.50 1008.84 1008.16 1007.48 1006.79 1006.07 1005.34 1004.60 1003.84 1003.08 1002.34 1001.64
1015.93 1015.71 1015.55 1015.48 1015.51 1015.64 1015.86 1016.14 1016.46 1016.79 1017.09 1017.34 1017.52 1017.60 1017.60 1017.51 1017.33 1017.09 1016.78 1016.42 1016.02 1015.59 1015.11 1014.61 1014.07 1013.49 1012.89 1012.26 1011.60 1010.93 1010.25 1009.57 1008.88 1008.19 1007.49 1006.79 1006.07 1005.32 1004.56 1003.78 1002.99 1002.20 1001.45 1000.73
1015.36 1015.21 1015.15 1015.19 1015.34 1015.58 1015.88 1016.23 1016.59 1016.92 1017.19 1017.38 1017.49 1017.49 1017.40 1017.23 1016.98 1016.68 1016.34 1015.96 1015.55 1015.11 1014.64 1014.14 1013.61 1013.04 1012.43 1011.79 1011.12 1010.43 1009.73 1009.03 1008.32 1007.60 1006.88 1006.14 1005.39 1004.61 1003.80 1002.98 1002.16 1001.35 1000.57 999.85
1015.01 1014.92 1014.93 1015.06 1015.30 1015.61 1015.97 1016.35 1016.71 1017.01 1017.23 1017.36 1017.38 1017.29 1017.12 1016.87 1016.57 1016.22 1015.85 1015.46 1015.05 1014.61 1014.16 1013.67 1013.15 1012.58 1011.98 1011.33 1010.66 1009.96 1009.24 1008.52 1007.79 1007.05 1006.30 1005.53 1004.74 1003.92 1003.08 1002.23 1001.37 1000.53 999.74 999.02
1014.87 1014.83 1014.90 1015.09 1015.37 1015.72 1016.10 1016.47 1016.79 1017.04 1017.20 1017.24 1017.17 1017.01 1016.76 1016.45 1016.09 1015.71 1015.32 1014.92 1014.51 1014.09 1013.65 1013.17 1012.66 1012.10 1011.49 1010.85 1010.17 1009.46 1008.74 1008.00 1007.26 1006.49 1005.72 1004.92 1004.10 1003.25 1002.38 1001.50 1000.61 999.76 998.95 998.23
1014.90 1014.89 1014.99 1015.20 1015.50 1015.85 1016.21 1016.54 1016.81 1016.99 1017.06 1017.02 1016.87 1016.63 1016.32 1015.96 1015.56 1015.16 1014.75 1014.34 1013.93 1013.52 1013.08 1012.61 1012.10 1011.54 1010.94 1010.30 1009.62 1008.91 1008.18 1007.43 1006.67 1005.90 1005.11 1004.29 1003.45 1002.58 1001.68 1000.78 999.88 999.01 998.20 997.46
1015.04 1015.03 1015.14 1015.35 1015.63 1015.94 1016.25 1016.52 1016.71 1016.81 1016.80 1016.68 1016.46 1016.16 1015.79 1015.39 1014.97 1014.54 1014.12 1013.71 1013.30 1012.88 1012.45 1011.97 1011.46 1010.90 1010.30 1009.65 1008.97 1008.26 1007.52 1006.78 1006.01 1005.23 1004.43 1003.60 1002.75 1001.86 1000.96 1000.04 999.14 998.26 997.45 996.72
1015.22 1015.20 1015.30 1015.48 1015.71 1015.97 1016.21 1016.39 1016.50 1016.51 1016.41 1016.22 1015.93 1015.58 1015.17 1014.74 1014.30 1013.86 1013.44 1013.02 1012.61 1012.18 1011.74 1011.26 1010.74 1010.17 1009.56 1008.91 1008.22 1007.51 1006.78 1006.03 1005.26 1004.48 1003.68 1002.85 1001.99 1001.11 1000.20 999.29 998.38 997.51 996.70 995.98
1015.40 1015.37 1015.44 1015.57 1015.74 1015.91 1016.06 1016.15 1016.16 1016.08 1015.90 1015.64 1015.30 1014.90 1014.47 1014.02 1013.57 1013.12 1012.70 1012.27 1011.85 1011.42 1010.97 1010.48 1009.95 1009.37 1008.76 1008.10 1007.41 1006.70 1005.96 1005.22 1004.46 1003.68 1002.88 1002.05 1001.20 1000.32 999.42 998.52 997.63 996.77 995.98 995.27
1015.58 1015.53 1015.54 1015.61 1015.70 1015.78 1015.82 1015.81 1015.72 1015.54 1015.29 1014.96 1014.57 1014.14 1013.69 1013.22 1012.77 1012.33 1011.90 1011.47 1011.05 1010.61 1010.15 1009.66 1009.12 1008.54 1007.92 1007.26 1006.57 1005.86 1005.13 1004.39 1003.63 1002.86 1002.06 1001.24 1000.40 999.53 998.66 997.77 996.90 996.07 995.31 994.62
1015.75 1015.66 1015.61 1015.60 1015.60 1015.58 1015.51 1015.39 1015.20 1014.93 1014.60 1014.21 1013.78 1013.31 1012.84 1012.38 1011.92 1011.48 1011.06 1010.64 1010.22 1009.78 1009.33 1008.83 1008.29 1007.72 1007.10 1006.45 1005.77 1005.06 1004.34 1003.60 1002.85 1002.08 1001.29 1000.48 999.65 998.81 997.95 997.10 996.27 995.47 994.75 994.10
1015.88 1015.74 1015.64 1015.55 1015.45 1015.32 1015.15 1014.91 1014.62 1014.27 1013.86 1013.41 1012.93 1012.45 1011.96 1011.49 1011.04 1010.61 1010.20 1009.79 1009.39 1008.97 1008.52 1008.03 1007.51 1006.95 1006.34 1005.70 1005.03 1004.34 1003.62 1002.89 1002.15 1001.39 1000.61 999.81 999.00 998.18 997.36 996.54 995.76 995.02 994.35 993.76
1015.93 1015.76 1015.60 1015.43 1015.23 1015.00 1014.72 1014.38 1013.99 1013.55 1013.08 1012.58 1012.06 1011.55 1011.06 1010.59 1010.15 1009.74 1009.34 1008.96 1008.57 1008.17 1007.75 1007.29 1006.79 1006.25 1005.67 1005.05 1004.40 1003.72 1003.02 1002.30 1001.56 1000.81 1000.04 999.26 998.48 997.69 996.91 996.15 995.42 994.75 994.14 993.63
1015.87 1015.66 1015.44 1015.19 1014.91 1014.58 1014.20 1013.78 1013.30 1012.79 1012.26 1011.71 1011.17 1010.65 1010.16 1009.70 1009.27 1008.88 1008.51 1008.15 1007.79 1007.43 1007.04 1006.61 1006.14 1005.63 1005.08 1004.49 1003.86 1003.20 1002.51 1001.80 1001.08 1000.34 999.59 998.84 998.08 997.34 996.61 995.91 995.26 994.66 994.14 993.71
1015.64 1015.38 1015.11 1014.80 1014.44 1014.04 1013.58 1013.08 1012.55 1011.98 1011.41 1010.83 1010.28 1009.75 1009.26 1008.82 1008.41 1008.05 1007.71 1007.38 1007.06 1006.73 1006.38 1005.98 1005.56 1005.08 1004.56 1003.99 1003.39 1002.75 1002.08 1001.38 1000.68 999.96 999.23 998.51 997.80 997.11 996.45 995.83 995.26 994.75 994.32 993.98
1015.20 1014.91 1014.59 1014.23 1013.82 1013.35 1012.85 1012.30 1011.72 1011.13 1010.53 1009.95 1009.40 1008.88 1008.41 1007.98 1007.61 1007.27 1006.96 1006.67 1006.38 1006.08 1005.76 1005.41 1005.01 1004.56 1004.07 1003.53 1002.95 1002.33 1001.68 1001.00 1000.32 999.62 998.93 998.25 997.60 996.97 996.38 995.85 995.37 994.96 994.62 994.37
1014.55 1014.24 1013.88 1013.48 1013.03 1012.54 1012.00 1011.43 1010.84 1010.25 1009.66 1009.08 1008.55 1008.05 1007.61 1007.21 1006.86 1006.55 1006.27 1006.01 1005.75 1005.48 1005.18 1004.85 1004.48 1004.06 1003.59 1003.07 1002.51 1001.90 1001.27 1000.62 999.96 999.30 998.65 998.02 997.43 996.87 996.36 995.92 995.53 995.21 994.97 994.80
1013.76 1013.41 1013.04 1012.61 1012.15 1011.64 1011.10 1010.54 1009.96 1009.38 1008.81 1008.27 1007.76 1007.30 1006.88 1006.52 1006.19 1005.91 1005.65 1005.41 1005.16 1004.91 1004.63 1004.31 1003.95 1003.55 1003.09 1002.58 1002.04 1001.45 1000.84 1000.22 999.58 998.96 998.36 997.78 997.25 996.77 996.34 995.98 995.68 995.46 995.29 995.20
Thickness
5609 5610 5607 5606 5605 5603 5595 5592 5590 5598 5599 5606 5605 5601 5596 5591 5587 5582 5578 5575 5571 5566 5562 5559 5556 5552 5548 5544 5539 5534 5528 5523 5518 5513 5508 5503 5497 5492 5486 5481 5476 5472 5468 5465
5602 5605 5599 5598 5604 5601 5598 5596 5594 5597 5599 5602 5597 5591 5586 5581 5577 5573 5568 5565 5561 5557 5553 5549 5544 5539 5534 5529 5524 5518 5512 5506 5502 5497 5491 5485 5479 5474 5468 5463 5458 5453 5449 5446
5580 5586 5586 5588 5602 5600 5598 5599 5596 5592 5594 5591 5586 5583 5579 5572 5567 5562 5558 5554 5550 5545 5540 5535 5529 5523 5517 5513 5507 5501 5495 5490 5484 5479 5472 5467 5461 5456 5450 5445 5441 5436 5432 5429
5566 5575 5570 5596 5604 5602 5598 5596 5596 5591 5585 5581 5578 5574 5569 5562 5557 5551 5546 5542 5536 5530 5525 5519 5514 5508 5502 5497 5490 5484 5478 5472 5466 5459 5454 5448 5442 5437 5432 5428 5423 5420 5417 5415
5550 5555 5567 5586 5596 5598 5593 5586 5585 5579 5574 5570 5565 5559 5553 5551 5547 5540 5535 5528 5521 5515 5509 5503 5497 5492 5486 5480 5474 5467 5461 5455 5448 5440 5435 5430 5425 5420 5416 5412 5409 5406 5403 5401
5541 5548 5557 5581 5593 5593 5587 5573 5575 5570 5564 5559 5553 5540 5539 5543 5535 5529 5523 5515 5508 5501 5494 5488 5483 5476 5469 5463 5457 5451 5446 5439 5431 5423 5416 5412 5408 5405 5401 5396 5395 5393 5392 5390
5535 5536 5556 5577 5582 5583 5567 5565 5564 5559 5554 5548 5538 5532 5530 5527 5520 5515 5507 5500 5493 5485 5477 5471 5465 5458 5452 5446 5440 5435 5430 5423 5415 5407 5400 5396 5393 5390 5386 5384 5382 5382 5381 5380
5526 5528 5550 5573 5574 5566 5560 5556 5552 5547 5542 5536 5529 5524 5519 5512 5505 5498 5491 5485 5479 5471 5463 5456 5448 5440 5436 5431 5427 5421 5415 5408 5402 5395 5387 5383 5379 5377 5374 5372 5371 5372 5372 5373
5547 5556 5560 5563 5557 5554 5549 5544 5540 5533 5529 5523 5516 5509 5504 5498 5490 5483 5477 5469 5463 5455 5449 5442 5432 5423 5417 5416 5411 5406 5401 5394 5388 5383 5377 5371 5367 5367 5366 5363 5363 5364 5364 5365
5542 5549 5551 5545 5542 5541 5537 5532 5527 5521 5515 5509 5502 5495 5487 5480 5474 5467 5462 5454 5447 5440 5435 5430 5422 5411 5402 5398 5395 5391 5386 5382 5377 5372 5369 5365 5360 5357 5357 5356 5356 5357 5358 5360
5537 5541 5536 5529 5526 5523 5520 5516 5512 5506 5501 5495 5488 5480 5473 5465 5459 5452 5446 5439 5432 5424 5419 5416 5410 5402 5393 5386 5381 5377 5374 5370 5367 5362 5359 5358 5355 5352 5352 5352 5349 5352 5354 5354
5531 5534 5526 5521 5518 5514 5510 5506 5500 5494 5487 5480 5473 5465 5459 5451 5445 5438 5432 5425 5418 5411 5405 5402 5396 5391 5384 5377 5370 5365 5364 5362 5358 5355 5352 5350 5349 5351 5351 5349 5351 5350 5351 5351
5523 5522 5516 5514 5509 5505 5500 5494 5488 5481 5474 5465 5459 5451 5445 5438 5432 5425 5418 5411 5404 5399 5393 5388 5384 5379 5374 5368 5362 5357 5353 5352 5350 5348 5346 5344 5343 5344 5348 5351 5349 5348 5348 5348
5512 5510 5504 5500 5493 5489 5484 5479 5472 5465 5457 5450 5443 5436 5429 5423 5417 5410 5403 5398 5392 5386 5381 5376 5372 5369 5364 5359 5355 5351 5347 5345 5344 5342 5339 5339 5338 5339 5340 5342 5345 5347 5346 5344
5497 5494 5489 5485 5479 5473 5468 5461 5454 5446 5440 5434 5428 5420 5413 5407 5403 5398 5392 5386 5380 5374 5370 5365 5362 5360 5356 5351 5347 5344 5341 5339 5338 5337 5336 5335 5335 5335 5335 5336 5338 5340 5342 5341
5482 5478 5474 5469 5463 5457 5450 5444 5436 5430 5424 5418 5412 5407 5401 5394 5389 5386 5380 5373 5366 5364 5361 5356 5353 5352 5348 5344 5341 5339 5337 5336 5335 5334 5333 5332 5332 5332 5332 5333 5334 5335 5336 5336
5466 5462 5458 5452 5445 5439 5432 5426 5419 5414 5408 5403 5398 5394 5388 5382 5377 5375 5372 5366 5358 5353 5349 5346 5346 5345 5341 5338 5335 5333 5332 5331 5331 5330 5328 5328 5328 5328 5329 5329 5330 5332 5332 5332
5451 5446 5441 5435 5427 5421 5416 5411 5405 5399 5394 5390 5385 5380 5374 5369 5365 5364 5361 5356 5351 5348 5343 5340 5339 5337 5335 5333 5330 5329 5328 5327 5326 5326 5326 5326 5327 5327 5327 5327 5328 5329 5330 5330
5435 5430 5424 5419 5412 5405 5400 5395 5391 5386 5381 5375 5370 5367 5364 5358 5353 5350 5348 5343 5339 5340 5341 5336 5335 5333 5330 5328 5328 5326 5324 5324 5324 5324 5324 5325 5325 5325 5325 5326 5326 5327 5326 5326
5416 5412 5407 5401 5396 5390 5386 5383 5378 5374 5370 5362 5357 5353 5352 5350 5344 5340 5337 5334 5331 5331 5333 5331 5329 5327 5325 5323 5324 5323 5321 5320 5320 5321 5321 5321 5322 5323 5324 5324 5324 5323 5322 5321
5398 5394 5389 5385 5382 5379 5374 5369 5364 5362 5359 5352 5345 5341 5341 5341 5336 5330 5327 5330 5332 5327 5326 5326 5324 5321 5320 5320 5321 5319 5317 5316 5316 5316 5317 5319 5320 5322 5323 5323 5321 5320 5319 5318
5382 5378 5375 5371 5368 5366 5364 5358 5352 5347 5345 5342 5337 5332 5329 5329 5328 5324 5321 5320 5324 5323 5322 5320 5317 5316 5317 5318 5316 5313 5312 5311 5312 5313 5314 5316 5318 5320 5321 5320 5319 5318 5316 5314
5367 5364 5360 5356 5353 5351 5350 5345 5339 5335 5332 5330 5327 5324 5321 5321 5318 5315 5319 5318 5316 5317 5317 5314 5313 5314 5314 5313 5310 5308 5307 5308 5309 5310 5312 5314 5315 5316 5317 5317 5315 5314 5313 5311
5351 5348 5345 5341 5336 5332 5332 5334 5331 5327 5323 5320 5318 5314 5311 5312 5312 5310 5310 5312 5312 5312 5310 5309 5310 5309 5309 5305 5304 5304 5304 5305 5306 5308 5310 5312 5313 5313 5314 5313 5312 5311 5310 5309
5336 5332 5329 5325 5321 5321 5321 5321 5320 5318 5314 5313 5310 5308 5305 5304 5304 5306 5305 5305 5306 5306 5305 5304 5304 5304 5301 5300 5299 5300 5300 5301 5304 5306 5308 5310 5310 5311 5311 5310 5309 5309 5307 5306
5323 5320 5319 5316 5313 5311 5310 5309 5308 5308 5306 5305 5305 5303 5301 5300 5299 5299 5299 5300 5299 5301 5300 5298 5297 5297 5296 5295 5296 5296 5297 5299 5301 5303 5305 5307 5308 5308 5308 5308 5307 5306 5305 5304
5312 5309 5307 5307 5306 5301 5299 5298 5298 5298 5297 5296 5297 5297 5295 5295 5295 5295 5295 5295 5295 5295 5294 5294 5293 5292 5292 5292 5292 5293 5295 5297 5299 5301 5303 5304 5305 5306 5306 5306 5305 5304 5303 5302